Location: Newark
(0.5300°S, 127.4800°E)
Time: 09:13:19
(UTC+00:00)

Vanguard 3 - Pass Details

Date: 20 September 2019
Orbit: 508 x 3262 km, 33.3° (Epoch: 15 October)

Event Time Altitude Azimuth Distance (km) Brightness Sun altitude
Rises 18:50:54 0° 221° (SW) 3,402 - -38.2°
Reaches altitude 10° 18:53:01 10° 216° (SW) 2,696 - -37.6°
Exits shadow 18:58:20 49° 164° (SSE) 1,627 8.6 -36.3°
Maximum altitude 18:59:26 52° 139° (SE) 1,662 8.7 -36.0°
Drops below altitude 10° 19:10:52 10° 67° (ENE) 4,682 11.7 -33.2°
Sets 19:15:43 0° 63° (ENE) 6,131 12.5 -32.0°
